,,Stat6,,Stat2,,Stat8,,Stat9,,Stat10,,Wind1,,Wind1,
time,status,PA1M_AVG,status,PR1M_SUM,status,RH1M_AVG,status,SR1M_AVG,status,TA1M_AVG,status,W1dAve1m,status,W1sAve1m,
2005-08-02, 00:00:00,VALID,918.445,VALID,0,VALID,97.1226,VALID,0,VALID,18.8495,VALID,132,VALID,0.48998,
2005-08-02, 00:01:00,VALID,918.423,VALID,0,VALID,97.4672,VALID,-0.0169808,VALID,18.8236,VALID,131,VALID,0.653832,
2005-08-02, 00:02:00,VALID,918.425,VALID,0,VALID,97.6236,VALID,0,VALID,18.8075,VALID,131,VALID,0.795422,
2005-08-02, 00:03:00,VALID,918.426,VALID,0,VALID,97.6325,VALID,0,VALID,18.7717,VALID,131,VALID,0.725675,
2005-08-02, 00:04:00,VALID,918.413,VALID,0,VALID,98.0623,VALID,-0.0339617,VALID,18.7623,VALID,125,VALID,0.866443,
2005-08-02, 00:05:00,VALID,918.415,VALID,0,VALID,98.4362,VALID,-0.0169808,VALID,18.7883,VALID,98,VALID,0.899148,
2005-08-02, 00:06:00,VALID,918.425,VALID,0,VALID,98.1946,VALID,0,VALID,18.7819,VALID,88,VALID,1.01072,
2005-08-02, 00:07:00,VALID,918.433,VALID,0,VALID,98.6574,VALID,0,VALID,18.7805,VALID,100,VALID,1.18641,
2005-08-02, 00:08:00,VALID,918.431,VALID,0,VALID,98.8215,VALID,0,VALID,18.8234,VALID,104,VALID,1.36758,
2005-08-02, 00:09:00,VALID,918.439,VALID,0,VALID,98.927,VALID,0.0169808,VALID,18.8395,VALID,104,VALID,1.274,
2005-08-02, 00:10:00,VALID,918.445,VALID,0,VALID,98.6969,VALID,0,VALID,18.8269,VALID,106,VALID,1.31845,
2005-08-02, 00:11:00,VALID,918.449,VALID,0,VALID,98.4286,VALID,0,VALID,18.762,VALID,107,VALID,1.21559,
2005-08-02, 00:12:00,VALID,918.453,VALID,0,VALID,98.4286,VALID,0,VALID,18.6975,VALID,130,VALID,0.937682,
2005-08-02, 00:13:00,VALID,918.452,VALID,0,VALID,98.8177,VALID,0,VALID,18.6555,VALID,120,VALID,1.09775,
2005-08-02, 00:14:00,VALID,918.436,VALID,0,VALID,99.1572,VALID,-0.0169808,VALID,18.6394,VALID,126,VALID,0.955078,
2005-08-02, 00:15:00,VALID,918.418,VALID,0,VALID,99.306,VALID,0,VALID,18.6299,VALID,121,VALID,1.02396,
2005-08-02, 00:16:00,VALID,918.405,VALID,0,VALID,99.3479,VALID,-0.0169808,VALID,18.6108,VALID,128,VALID,1.2065,
2005-08-02, 00:17:00,VALID,918.393,VALID,0,VALID,99.3683,VALID,-0.0339617,VALID,18.6043,VALID,126,VALID,0.845881,
2005-08-02, 00:18:00,VALID,918.375,VALID,0,VALID,99.1953,VALID,0,VALID,18.5785,VALID,107,VALID,1.14615,
2005-08-02, 00:19:00,VALID,918.353,VALID,0,VALID,99.1826,VALID,-0.0509425,VALID,18.5753,VALID,123,VALID,1.04688,
2005-08-02, 00:20:00,VALID,918.359,VALID,0,VALID,99.1178,VALID,-0.0169808,VALID,18.5819,VALID,118,VALID,0.783296,
2005-08-02, 00:21:00,VALID,918.346,VALID,0,VALID,99.0326,VALID,0.0169808,VALID,18.569,VALID,104,VALID,0.956659,
2005-08-02, 00:22:00,VALID,918.334,VALID,0,VALID,99.044,VALID,0,VALID,18.5593,VALID,115,VALID,1.05636,
2005-08-02, 00:23:00,VALID,918.315,VALID,0,VALID,99.1165,VALID,-0.0169808,VALID,18.546,VALID,115,VALID,1.06516,
2005-08-02, 00:24:00,VALID,918.293,VALID,0,VALID,99.2538,VALID,0,VALID,18.5527,VALID,115,VALID,1.01563,
2005-08-02, 00:25:00,VALID,918.283,VALID,0,VALID,99.1737,VALID,-0.0169808,VALID,18.5651,VALID,115,VALID,0.967607,
2005-08-02, 00:26:00,VALID,918.298,VALID,0,VALID,99.1178,VALID,0,VALID,18.5787,VALID,115,VALID,0.827381,
2005-08-02, 00:27:00,VALID,918.293,VALID,0,VALID,99.2208,VALID,0.0339617,VALID,18.5619,VALID,120,VALID,0.837326,
2005-08-02, 00:28:00,VALID,918.297,VALID,0,VALID,99.5768,VALID,0,VALID,18.5946,VALID,121,VALID,0.991279,
2005-08-02, 00:29:00,VALID,918.294,VALID,0,VALID,99.6709,VALID,0.0169808,VALID,18.6068,VALID,121,VALID,0.76598,
2005-08-02, 00:30:00,VALID,918.291,VALID,0,VALID,99.8929,VALID,0,VALID,18.6361,VALID,121,VALID,0.841797,
2005-08-02, 00:31:00,VALID,918.295,VALID,0,VALID,99.9952,VALID,-0.0169808,VALID,18.6749,VALID,117,VALID,0.514063,
2005-08-02, 00:32:00,VALID,918.28,VALID,0,VALID,99.9743,VALID,0,VALID,18.6878,VALID,118,VALID,0.558919,
2005-08-02, 00:33:00,VALID,918.264,VALID,0,VALID,99.9011,VALID,0,VALID,18.6878,VALID,118,VALID,0.612351,
2005-08-02, 00:34:00,VALID,918.262,VALID,0,VALID,99.9687,VALID,0,VALID,18.7014,VALID,131,VALID,0.753397,
2005-08-02, 00:35:00,VALID,918.257,VALID,0,VALID,100,VALID,0,VALID,18.7198,VALID,143,VALID,0.824023,
2005-08-02, 00:36:00,VALID,918.257,VALID,0,VALID,100,VALID,0,VALID,18.772,VALID,141,VALID,0.766387,
2005-08-02, 00:37:00,VALID,918.246,VALID,0,VALID,100,VALID,0.0169808,VALID,18.8045,VALID,140,VALID,0.756324,
2005-08-02, 00:38:00,VALID,918.246,VALID,0,VALID,100,VALID,0.0169808,VALID,18.808,VALID,136,VALID,0.708705,
2005-08-02, 00:39:00,VALID,918.236,VALID,0,VALID,100,VALID,0,VALID,18.8176,VALID,140,VALID,0.902043,
2005-08-02, 00:40:00,VALID,918.234,VALID,0,VALID,100,VALID,0.0169808,VALID,18.8169,VALID,143,VALID,0.740104,
2005-08-02, 00:41:00,VALID,918.224,VALID,0,VALID,100,VALID,0.0169808,VALID,18.8298,VALID,143,VALID,0.770312,
2005-08-02, 00:42:00,VALID,918.215,VALID,0,VALID,100,VALID,-0.0169808,VALID,18.8365,VALID,140,VALID,0.87314,
2005-08-02, 00:43:00,VALID,918.205,VALID,0,VALID,100,VALID,0.0169808,VALID,18.8331,VALID,139,VALID,0.922222,
2005-08-02, 00:44:00,VALID,918.188,VALID,0,VALID,100,VALID,0,VALID,18.8241,VALID,139,VALID,0.792553,
2005-08-02, 00:45:00,VALID,918.183,VALID,0,VALID,99.925,VALID,0,VALID,18.7946,VALID,139,VALID,0.629179,
2005-08-02, 00:46:00,VALID,918.157,VALID,0,VALID,99.7688,VALID,0,VALID,18.772,VALID,142,VALID,0.574128,
2005-08-02, 00:47:00,VALID,918.138,VALID,0,VALID,99.545,VALID,0,VALID,18.7335,VALID,135,VALID,0.728379,
2005-08-02, 00:48:00,VALID,918.117,VALID,0,VALID,99.4179,VALID,0,VALID,18.6875,VALID,143,VALID,0.96189,
2005-08-02, 00:49:00,VALID,918.1,VALID,0,VALID,99.395,VALID,0,VALID,18.653,VALID,139,VALID,0.690104,
2005-08-02, 00:50:00,VALID,918.08,VALID,0,VALID,99.5679,VALID,-0.0169808,VALID,18.6269,VALID,138,VALID,0.946429,
2005-08-02, 00:51:00,VALID,918.08,VALID,0,VALID,99.7345,VALID,0,VALID,18.6138,VALID,141,VALID,0.708398,
2005-08-02, 00:52:00,VALID,918.081,VALID,0,VALID,99.8591,VALID,0.0169808,VALID,18.6075,VALID,147,VALID,0.65263,
2005-08-02, 00:53:00,VALID,918.085,VALID,0,VALID,99.9781,VALID,-0.0169808,VALID,18.5978,VALID,146,VALID,0.668423,
2005-08-02, 00:54:00,VALID,918.085,VALID,0,VALID,99.9941,VALID,0.0169808,VALID,18.5778,VALID,142,VALID,0.672805,
2005-08-02, 00:55:00,VALID,918.09,VALID,0,VALID,100,VALID,0,VALID,18.5681,VALID,141,VALID,0.783156,
2005-08-02, 00:56:00,VALID,918.084,VALID,0,VALID,100,VALID,0.0169808,VALID,18.5942,VALID,141,VALID,0.762074,
2005-08-02, 00:57:00,VALID,918.078,VALID,0,VALID,100,VALID,-0.0339617,VALID,18.6011,VALID,142,VALID,0.703906,
2005-08-02, 00:58:00,VALID,918.084,VALID,0,VALID,100,VALID,0,VALID,18.6271,VALID,142,VALID,0.633384,
2005-08-02, 00:59:00,VALID,918.067,VALID,0,VALID,100,VALID,0,VALID,18.6142,VALID,142,VALID,0.407774,
2005-08-02, 01:00:00,VALID,918.052,VALID,0,VALID,100,VALID,-0.0169808,VALID,18.5986,VALID,141,VALID,0.714286,
2005-08-02, 01:01:00,VALID,918.044,VALID,0,VALID,100,VALID,0.0339617,VALID,18.6267,VALID,136,VALID,0.685594,
2005-08-02, 01:02:00,VALID,918.01,VALID,0,VALID,100,VALID,0,VALID,18.6716,VALID,132,VALID,0.730729,
2005-08-02, 01:03:00,VALID,918.004,VALID,0,VALID,100,VALID,0.0339617,VALID,18.7072,VALID,133,VALID,0.692224,
2005-08-02, 01:04:00,VALID,917.989,VALID,0,VALID,100,VALID,0.0169808,VALID,18.7298,VALID,131,VALID,0.567294,
2005-08-02, 01:05:00,VALID,917.984,VALID,0,VALID,100,VALID,0,VALID,18.73,VALID,131,VALID,0.549665,
2005-08-02, 01:06:00,VALID,917.963,VALID,0,VALID,100,VALID,0.0169808,VALID,18.7434,VALID,131,VALID,0.740282,
2005-08-02, 01:07:00,VALID,917.968,VALID,0,VALID,99.955,VALID,0.0169808,VALID,18.7496,VALID,131,VALID,0.811357,
2005-08-02, 01:08:00,VALID,917.956,VALID,0,VALID,99.634,VALID,0.0169808,VALID,18.7563,VALID,131,VALID,0.803597,
2005-08-02, 01:09:00,VALID,917.937,VALID,0,VALID,99.3199,VALID,0,VALID,18.7851,VALID,130,VALID,0.641897,
2005-08-02, 01:10:00,VALID,917.923,VALID,0,VALID,98.8049,VALID,0.0169808,VALID,18.8271,VALID,130,VALID,0.190874,
2005-08-02, 01:11:00,VALID,917.904,VALID,0,VALID,98.2493,VALID,0.0169808,VALID,18.8273,VALID,130,VALID,0.124112,
2005-08-02, 01:12:00,VALID,917.9,VALID,0,VALID,97.9733,VALID,0,VALID,18.7983,VALID,129,VALID,0.459449,
2005-08-02, 01:13:00,VALID,917.89,VALID,0,VALID,97.9237,VALID,-0.0339617,VALID,18.7593,VALID,128,VALID,0.361683,
2005-08-02, 01:14:00,VALID,917.9,VALID,0,VALID,97.9504,VALID,-0.0509425,VALID,18.7478,VALID,128,VALID,0.397727,
2005-08-02, 01:15:00,VALID,917.896,VALID,0,VALID,97.8614,VALID,-0.0679233,VALID,18.7316,VALID,128,VALID,0.209872,
2005-08-02, 01:16:00,VALID,917.899,VALID,0,VALID,97.6376,VALID,-0.0849042,VALID,18.7056,VALID,128,VALID,0.183685,
2005-08-02, 01:17:00,VALID,917.869,VALID,0,VALID,97.3248,VALID,-0.101885,VALID,18.6574,VALID,128,VALID,0.140625,
2005-08-02, 01:18:00,VALID,917.853,VALID,0,VALID,97.3629,VALID,-0.118866,VALID,18.6124,VALID,128,VALID,0.397372,
2005-08-02, 01:19:00,VALID,917.827,VALID,0,VALID,97.251,VALID,-0.118866,VALID,18.5476,VALID,128,VALID,0.430051,
2005-08-02, 01:20:00,VALID,917.816,VALID,0,VALID,97.2879,VALID,-0.0849042,VALID,18.4895,VALID,128,VALID,0.205329,
2005-08-02, 01:21:00,VALID,917.802,VALID,0,VALID,97.4939,VALID,-0.101885,VALID,18.4346,VALID,128,VALID,0.261446,
2005-08-02, 01:22:00,VALID,917.788,VALID,0,VALID,97.7406,VALID,-0.101885,VALID,18.3862,VALID,128,VALID,0.664435,
2005-08-02, 01:23:00,VALID,917.771,VALID,0,VALID,97.9835,VALID,-0.101885,VALID,18.367,VALID,132,VALID,0.834695,
2005-08-02, 01:24:00,VALID,917.757,VALID,0,VALID,98.4972,VALID,-0.101885,VALID,18.3573,VALID,133,VALID,0.837536,
2005-08-02, 01:25:00,VALID,917.741,VALID,0,VALID,98.6384,VALID,-0.118866,VALID,18.3772,VALID,131,VALID,0.708841,
2005-08-02, 01:26:00,VALID,917.729,VALID,0,VALID,98.6015,VALID,-0.101885,VALID,18.3666,VALID,130,VALID,0.906432,
2005-08-02, 01:27:00,VALID,917.725,VALID,0,VALID,98.6663,VALID,-0.101885,VALID,18.4251,VALID,132,VALID,1.06995,
2005-08-02, 01:28:00,VALID,917.719,VALID,0,VALID,98.454,VALID,-0.0509425,VALID,18.4666,VALID,133,VALID,1.11644,
2005-08-02, 01:29:00,VALID,917.729,VALID,0,VALID,98.1653,VALID,-0.0339617,VALID,18.5206,VALID,135,VALID,1.0997,
2005-08-02, 01:30:00,VALID,917.724,VALID,0,VALID,97.7699,VALID,0.0169808,VALID,18.5497,VALID,133,VALID,1.20052,
2005-08-02, 01:31:00,VALID,917.723,VALID,0,VALID,97.5588,VALID,0,VALID,18.5656,VALID,131,VALID,0.993608,
2005-08-02, 01:32:00,VALID,917.702,VALID,0,VALID,97.3998,VALID,0.0339617,VALID,18.5693,VALID,130,VALID,0.870908,
2005-08-02, 01:33:00,VALID,917.693,VALID,0,VALID,97.2714,VALID,0,VALID,18.5559,VALID,128,VALID,0.757254,
2005-08-02, 01:34:00,VALID,917.684,VALID,0,VALID,97.2727,VALID,0.0169808,VALID,18.5301,VALID,121,VALID,0.692406,
2005-08-02, 01:35:00,VALID,917.691,VALID,0,VALID,97.4443,VALID,0.0169808,VALID,18.5176,VALID,127,VALID,0.561166,
2005-08-02, 01:36:00,VALID,917.675,VALID,0,VALID,97.1023,VALID,0.0169808,VALID,18.4786,VALID,101,VALID,0.866146,
2005-08-02, 01:37:00,VALID,917.68,VALID,0,VALID,97.4596,VALID,0,VALID,18.4367,VALID,105,VALID,1.00454,
2005-08-02, 01:38:00,VALID,917.688,VALID,0,VALID,97.5079,VALID,0.0169808,VALID,18.4205,VALID,109,VALID,0.980208,
2005-08-02, 01:39:00,VALID,917.694,VALID,0,VALID,97.4901,VALID,0,VALID,18.4014,VALID,109,VALID,0.802379,
2005-08-02, 01:40:00,VALID,917.684,VALID,0,VALID,97.5283,VALID,0,VALID,18.3855,VALID,112,VALID,0.781072,
2005-08-02, 01:41:00,VALID,917.665,VALID,0,VALID,97.6249,VALID,0.0169808,VALID,18.3689,VALID,118,VALID,0.817522,
2005-08-02, 01:42:00,VALID,917.649,VALID,0,VALID,97.6452,VALID,0.0169808,VALID,18.3788,VALID,122,VALID,0.732515,
2005-08-02, 01:43:00,VALID,917.623,VALID,0,VALID,97.3693,VALID,-0.0169808,VALID,18.3562,VALID,123,VALID,0.595656,
2005-08-02, 01:44:00,VALID,917.596,VALID,0,VALID,97.2154,VALID,0.0169808,VALID,18.3075,VALID,121,VALID,0.76875,
2005-08-02, 01:45:00,VALID,917.567,VALID,0,VALID,97.4494,VALID,0,VALID,18.272,VALID,120,VALID,0.975109,
2005-08-02, 01:46:00,VALID,917.539,VALID,0,VALID,97.8932,VALID,0,VALID,18.2365,VALID,119,VALID,0.864879,
2005-08-02, 01:47:00,VALID,917.533,VALID,0,VALID,97.9212,VALID,0,VALID,18.2307,VALID,119,VALID,0.771723,
2005-08-02, 01:48:00,VALID,917.534,VALID,0,VALID,98.1386,VALID,0,VALID,18.2042,VALID,119,VALID,0.662972,
2005-08-02, 01:49:00,VALID,917.526,VALID,0,VALID,98.1997,VALID,0,VALID,18.2109,VALID,121,VALID,0.746911,
2005-08-02, 01:50:00,VALID,917.517,VALID,0,VALID,98.3421,VALID,0,VALID,18.2303,VALID,128,VALID,0.85902,
2005-08-02, 01:51:00,VALID,917.516,VALID,0,VALID,98.2035,VALID,0.0169808,VALID,18.2499,VALID,139,VALID,1.08321,
2005-08-02, 01:52:00,VALID,917.503,VALID,0,VALID,98.3154,VALID,0,VALID,18.2589,VALID,138,VALID,1.1317,
2005-08-02, 01:53:00,VALID,917.48,VALID,0,VALID,98.2251,VALID,0.0169808,VALID,18.2884,VALID,132,VALID,0.949219,
2005-08-02, 01:54:00,VALID,917.461,VALID,0,VALID,98.3052,VALID,0,VALID,18.3276,VALID,129,VALID,0.788281,
2005-08-02, 01:55:00,VALID,917.459,VALID,0,VALID,98.0026,VALID,0,VALID,18.3336,VALID,123,VALID,0.798874,
2005-08-02, 01:56:00,VALID,917.448,VALID,0,VALID,97.9771,VALID,0.0169808,VALID,18.3308,VALID,121,VALID,1.05373,
2005-08-02, 01:57:00,VALID,917.447,VALID,0,VALID,98.1641,VALID,0,VALID,18.3276,VALID,121,VALID,0.81684,
2005-08-02, 01:58:00,VALID,917.449,VALID,0,VALID,98.1679,VALID,0.0339617,VALID,18.3239,VALID,121,VALID,0.885938,
2005-08-02, 01:59:00,VALID,917.455,VALID,0,VALID,98.2938,VALID,0,VALID,18.3204,VALID,132,VALID,1.04724,
2005-08-02, 02:00:00,VALID,917.455,VALID,0,VALID,98.1564,VALID,-0.0169808,VALID,18.3241,VALID,127,VALID,0.841146,
2005-08-02, 02:01:00,VALID,917.458,VALID,0,VALID,98.1106,VALID,0,VALID,18.3244,VALID,123,VALID,0.957292,
2005-08-02, 02:02:00,VALID,917.47,VALID,0,VALID,98.3281,VALID,0.0169808,VALID,18.337,VALID,119,VALID,0.944602,
2005-08-02, 02:03:00,VALID,917.47,VALID,0,VALID,98.1831,VALID,0.0169808,VALID,18.34,VALID,115,VALID,0.942472,
2005-08-02, 02:04:00,VALID,917.475,VALID,0,VALID,98.0102,VALID,0.0339617,VALID,18.3433,VALID,115,VALID,0.6875,
2005-08-02, 02:05:00,VALID,917.48,VALID,0,VALID,98.1056,VALID,0,VALID,18.3403,VALID,113,VALID,0.830382,
2005-08-02, 02:06:00,VALID,917.485,VALID,0,VALID,98.3141,VALID,0.0339617,VALID,18.3631,VALID,113,VALID,1.05435,
2005-08-02, 02:07:00,VALID,917.466,VALID,0,VALID,98.2137,VALID,0,VALID,18.3594,VALID,113,VALID,1.09668,
2005-08-02, 02:08:00,VALID,917.467,VALID,0,VALID,97.9949,VALID,0.0169808,VALID,18.3725,VALID,113,VALID,1.06777,
2005-08-02, 02:09:00,VALID,917.463,VALID,0,VALID,97.9809,VALID,0.0169808,VALID,18.3626,VALID,113,VALID,0.798363,
2005-08-02, 02:10:00,VALID,917.458,VALID,0,VALID,97.9771,VALID,-0.0169808,VALID,18.3633,VALID,114,VALID,0.89939,
2005-08-02, 02:11:00,VALID,917.461,VALID,0,VALID,98.0903,VALID,0,VALID,18.3403,VALID,119,VALID,0.724077,
2005-08-02, 02:12:00,VALID,917.45,VALID,0,VALID,98.0878,VALID,0,VALID,18.3336,VALID,124,VALID,0.8484,
2005-08-02, 02:13:00,VALID,917.452,VALID,0,VALID,98.2518,VALID,-0.0339617,VALID,18.3271,VALID,132,VALID,1.20945,
2005-08-02, 02:14:00,VALID,917.455,VALID,0,VALID,98.22,VALID,-0.101885,VALID,18.3578,VALID,138,VALID,1.21218,
2005-08-02, 02:15:00,VALID,917.445,VALID,0,VALID,98.2149,VALID,-0.0679233,VALID,18.3804,VALID,140,VALID,0.986243,
2005-08-02, 02:16:00,VALID,917.442,VALID,0,VALID,98.1412,VALID,-0.0849042,VALID,18.4028,VALID,136,VALID,0.972917,
2005-08-02, 02:17:00,VALID,917.423,VALID,0,VALID,98.0674,VALID,-0.0849042,VALID,18.3963,VALID,131,VALID,0.980978,
2005-08-02, 02:18:00,VALID,917.417,VALID,0,VALID,97.9453,VALID,-0.0849042,VALID,18.4028,VALID,130,VALID,0.736662,
2005-08-02, 02:19:00,VALID,917.41,VALID,0,VALID,97.8665,VALID,-0.101885,VALID,18.3998,VALID,124,VALID,0.799665,
2005-08-02, 02:20:00,VALID,917.402,VALID,0,VALID,98.0178,VALID,-0.118866,VALID,18.3933,VALID,124,VALID,0.918899,
2005-08-02, 02:21:00,VALID,917.392,VALID,0,VALID,97.9428,VALID,-0.101885,VALID,18.4261,VALID,129,VALID,0.613554,
2005-08-02, 02:22:00,VALID,917.372,VALID,0,VALID,97.8182,VALID,-0.101885,VALID,18.4127,VALID,122,VALID,0.780895,
2005-08-02, 02:23:00,VALID,917.353,VALID,0,VALID,97.8932,VALID,-0.101885,VALID,18.4228,VALID,116,VALID,1.02381,
2005-08-02, 02:24:00,VALID,917.339,VALID,0,VALID,97.7584,VALID,-0.101885,VALID,18.4261,VALID,115,VALID,0.98274,
2005-08-02, 02:25:00,VALID,917.316,VALID,0,VALID,97.7978,VALID,-0.101885,VALID,18.4159,VALID,110,VALID,0.866629,
2005-08-02, 02:26:00,VALID,917.309,VALID,0,VALID,97.6376,VALID,-0.101885,VALID,18.4069,VALID,118,VALID,0.565476,
2005-08-02, 02:27:00,VALID,917.292,VALID,0,VALID,97.78,VALID,-0.101885,VALID,18.3933,VALID,122,VALID,0.898047,
2005-08-02, 02:28:00,VALID,917.264,VALID,0,VALID,97.8347,VALID,-0.101885,VALID,18.3898,VALID,120,VALID,0.825945,
2005-08-02, 02:29:00,VALID,917.242,VALID,0,VALID,98.0153,VALID,-0.101885,VALID,18.4097,VALID,117,VALID,0.906059,
2005-08-02, 02:30:00,VALID,917.218,VALID,0,VALID,97.8614,VALID,-0.0849042,VALID,18.4454,VALID,113,VALID,1.06845,
2005-08-02, 02:31:00,VALID,917.218,VALID,0,VALID,97.6211,VALID,-0.101885,VALID,18.4743,VALID,110,VALID,0.910742,
2005-08-02, 02:32:00,VALID,917.219,VALID,0,VALID,97.4583,VALID,-0.101885,VALID,18.48,VALID,110,VALID,0.877841,
2005-08-02, 02:33:00,VALID,917.212,VALID,0,VALID,97.1658,VALID,-0.101885,VALID,18.5001,VALID,110,VALID,0.856213,
2005-08-02, 02:34:00,VALID,917.226,VALID,0,VALID,96.9738,VALID,-0.118866,VALID,18.4837,VALID,110,VALID,0.780664,
2005-08-02, 02:35:00,VALID,917.226,VALID,0,VALID,96.9001,VALID,-0.0849042,VALID,18.4872,VALID,110,VALID,0.694247,
2005-08-02, 02:36:00,VALID,917.198,VALID,0,VALID,96.394,VALID,-0.101885,VALID,18.4256,VALID,110,VALID,0.646076,
2005-08-02, 02:37:00,VALID,917.176,VALID,0,VALID,96.5122,VALID,-0.0849042,VALID,18.3809,VALID,110,VALID,0.803385,
2005-08-02, 02:38:00,VALID,917.16,VALID,0,VALID,96.8505,VALID,-0.0849042,VALID,18.3255,VALID,110,VALID,0.682165,
2005-08-02, 02:39:00,VALID,917.148,VALID,0,VALID,97.0438,VALID,-0.101885,VALID,18.284,VALID,113,VALID,0.767987,
2005-08-02, 02:40:00,VALID,917.141,VALID,0,VALID,97.424,VALID,-0.118866,VALID,18.2448,VALID,117,VALID,0.666243,
2005-08-02, 02:41:00,VALID,917.13,VALID,0,VALID,97.5321,VALID,-0.0849042,VALID,18.2224,VALID,125,VALID,0.691883,
2005-08-02, 02:42:00,VALID,917.14,VALID,0,VALID,97.7559,VALID,-0.101885,VALID,18.2065,VALID,129,VALID,0.710938,
2005-08-02, 02:43:00,VALID,917.135,VALID,0,VALID,97.7635,VALID,-0.0679233,VALID,18.1832,VALID,123,VALID,0.696265,
2005-08-02, 02:44:00,VALID,917.134,VALID,0,VALID,97.8703,VALID,-0.0169808,VALID,18.1528,VALID,123,VALID,0.775152,
2005-08-02, 02:45:00,VALID,917.159,VALID,0,VALID,97.8538,VALID,0,VALID,18.1828,VALID,120,VALID,0.880335,
2005-08-02, 02:46:00,VALID,917.154,VALID,0,VALID,97.6262,VALID,-0.0169808,VALID,18.189,VALID,114,VALID,0.704799,
2005-08-02, 02:47:00,VALID,917.161,VALID,0,VALID,97.4278,VALID,0,VALID,18.2146,VALID,114,VALID,0.759766,
2005-08-02, 02:48:00,VALID,917.153,VALID,0,VALID,97.3591,VALID,0,VALID,18.2436,VALID,114,VALID,0.94436,
2005-08-02, 02:49:00,VALID,917.16,VALID,0,VALID,96.984,VALID,0,VALID,18.2824,VALID,113,VALID,1.06432,
2005-08-02, 02:50:00,VALID,917.142,VALID,0,VALID,96.7742,VALID,0,VALID,18.2953,VALID,111,VALID,1.16425,
2005-08-02, 02:51:00,VALID,917.107,VALID,0,VALID,96.6801,VALID,0,VALID,18.3112,VALID,111,VALID,1.08003,
2005-08-02, 02:52:00,VALID,917.095,VALID,0,VALID,96.5733,VALID,0,VALID,18.3209,VALID,110,VALID,1.14196,
2005-08-02, 02:53:00,VALID,917.087,VALID,0,VALID,96.4792,VALID,0,VALID,18.3209,VALID,106,VALID,1.16853,
2005-08-02, 02:54:00,VALID,917.086,VALID,0,VALID,96.2465,VALID,0,VALID,18.3276,VALID,109,VALID,1.22191,
2005-08-02, 02:55:00,VALID,917.095,VALID,0,VALID,96.085,VALID,-0.0339617,VALID,18.3313,VALID,116,VALID,1.07778,
2005-08-02, 02:56:00,VALID,917.103,VALID,0,VALID,96.0748,VALID,0,VALID,18.3278,VALID,115,VALID,1.0202,
2005-08-02, 02:57:00,VALID,917.097,VALID,0,VALID,96.4258,VALID,-0.0339617,VALID,18.3147,VALID,116,VALID,1.05344,
2005-08-02, 02:58:00,VALID,917.089,VALID,0,VALID,96.5682,VALID,-0.0169808,VALID,18.3502,VALID,120,VALID,1.13027,
2005-08-02, 02:59:00,VALID,917.074,VALID,0,VALID,96.2516,VALID,-0.0169808,VALID,18.3958,VALID,130,VALID,1.19741,
2005-08-02, 03:00:00,VALID,917.076,VALID,0,VALID,96.0735,VALID,-0.0679233,VALID,18.4217,VALID,133,VALID,1.26711,
2005-08-02, 03:01:00,VALID,917.082,VALID,0,VALID,96.057,VALID,0,VALID,18.4468,VALID,131,VALID,1.51705,
2005-08-02, 03:02:00,VALID,917.092,VALID,0,VALID,95.748,VALID,0,VALID,18.5081,VALID,127,VALID,1.1863,
2005-08-02, 03:03:00,VALID,917.113,VALID,0,VALID,95.8803,VALID,-0.0169808,VALID,18.557,VALID,127,VALID,1.37954,
2005-08-02, 03:04:00,VALID,917.113,VALID,0,VALID,95.687,VALID,-0.0169808,VALID,18.6152,VALID,113,VALID,1.20655,
2005-08-02, 03:05:00,VALID,917.112,VALID,0,VALID,95.2483,VALID,0,VALID,18.6408,VALID,109,VALID,1.15086,
2005-08-02, 03:06:00,VALID,917.108,VALID,0,VALID,94.938,VALID,0,VALID,18.6343,VALID,106,VALID,0.778525,
2005-08-02, 03:07:00,VALID,917.124,VALID,0,VALID,95.1097,VALID,-0.0169808,VALID,18.5956,VALID,105,VALID,0.91282,
2005-08-02, 03:08:00,VALID,917.138,VALID,0,VALID,95.2355,VALID,-0.0169808,VALID,18.5762,VALID,106,VALID,0.978561,
2005-08-02, 03:09:00,VALID,917.15,VALID,0,VALID,95.4911,VALID,0.0169808,VALID,18.557,VALID,107,VALID,1.03229,
2005-08-02, 03:10:00,VALID,917.157,VALID,0,VALID,95.5344,VALID,0,VALID,18.5665,VALID,108,VALID,0.84189,
2005-08-02, 03:11:00,VALID,917.154,VALID,0,VALID,95.4492,VALID,0.0169808,VALID,18.5593,VALID,110,VALID,0.728423,
2005-08-02, 03:12:00,VALID,917.147,VALID,0,VALID,95.2139,VALID,0,VALID,18.5469,VALID,110,VALID,0.550114,
2005-08-02, 03:13:00,VALID,917.137,VALID,0,VALID,95.1949,VALID,-0.0509425,VALID,18.5208,VALID,110,VALID,0.546113,
2005-08-02, 03:14:00,VALID,917.124,VALID,0,VALID,95.4059,VALID,0,VALID,18.4754,VALID,110,VALID,0.59593,
2005-08-02, 03:15:00,VALID,917.089,VALID,0,VALID,95.4835,VALID,0,VALID,18.4433,VALID,110,VALID,0.556076,
2005-08-02, 03:16:00,VALID,917.095,VALID,0,VALID,95.5814,VALID,0,VALID,18.3792,VALID,110,VALID,0.392531,
2005-08-02, 03:17:00,VALID,917.097,VALID,0,VALID,96.1651,VALID,0,VALID,18.3274,VALID,110,VALID,0.376065,
2005-08-02, 03:18:00,VALID,917.092,VALID,0,VALID,96.4143,VALID,0,VALID,18.3114,VALID,110,VALID,0.426962,
2005-08-02, 03:19:00,VALID,917.082,VALID,0,VALID,96.4385,VALID,0,VALID,18.2656,VALID,110,VALID,0.603087,
2005-08-02, 03:20:00,VALID,917.086,VALID,0,VALID,96.3368,VALID,-0.0169808,VALID,18.2402,VALID,110,VALID,0.45277,
2005-08-02, 03:21:00,VALID,917.11,VALID,0,VALID,96.6483,VALID,0.0169808,VALID,18.2017,VALID,110,VALID,0.605564,
2005-08-02, 03:22:00,VALID,917.115,VALID,0,VALID,97.1264,VALID,0,VALID,18.1918,VALID,110,VALID,0.720703,
2005-08-02, 03:23:00,VALID,917.126,VALID,0,VALID,97.2269,VALID,0,VALID,18.1883,VALID,110,VALID,0.792081,
2005-08-02, 03:24:00,VALID,917.133,VALID,0,VALID,97.2282,VALID,0,VALID,18.2077,VALID,110,VALID,0.624809,
2005-08-02, 03:25:00,VALID,917.159,VALID,0,VALID,96.9548,VALID,-0.0169808,VALID,18.2077,VALID,110,VALID,0.563743,
2005-08-02, 03:26:00,VALID,917.188,VALID,0,VALID,96.9916,VALID,0,VALID,18.2116,VALID,110,VALID,0.684775,
2005-08-02, 03:27:00,VALID,917.219,VALID,0,VALID,97.2345,VALID,0.0169808,VALID,18.2303,VALID,110,VALID,0.774528,
2005-08-02, 03:28:00,VALID,917.232,VALID,0,VALID,97.2307,VALID,0,VALID,18.269,VALID,110,VALID,0.765625,
2005-08-02, 03:29:00,VALID,917.254,VALID,0,VALID,97.0717,VALID,0,VALID,18.3244,VALID,110,VALID,0.732558,
2005-08-02, 03:30:00,VALID,917.258,VALID,0,VALID,96.6992,VALID,0,VALID,18.3499,VALID,112,VALID,0.562309,
2005-08-02, 03:31:00,VALID,917.242,VALID,0,VALID,96.5924,VALID,0.0339617,VALID,18.3689,VALID,122,VALID,0.718941,
2005-08-02, 03:32:00,VALID,917.23,VALID,0,VALID,96.6419,VALID,-0.0169808,VALID,18.4046,VALID,123,VALID,0.658346,
2005-08-02, 03:33:00,VALID,917.214,VALID,0,VALID,96.4766,VALID,0.0169808,VALID,18.4339,VALID,123,VALID,0.457508,
2005-08-02, 03:34:00,VALID,917.194,VALID,0,VALID,96.3571,VALID,0,VALID,18.4429,VALID,123,VALID,0.471608,
2005-08-02, 03:35:00,VALID,917.177,VALID,0,VALID,96.3177,VALID,0,VALID,18.4436,VALID,124,VALID,0.599414,